Погода в Драгиньяне

Франция     43°32′17″N   6°27′48″E
темп.,
°C
ветер,
м/с
пор.,
м/с
влажн.,
%
обл.,
%
осадки,
мм/ч
давл.,
гПа
погр.,
м
14 мая, пт
пт1423:00+12зсз51466100 0.0 1008612
02:00+10зсз4108179 0.0 1009341
05:00+10зсз248033 0.0 100882
08:00+12з3667100 0.0 1007336
11:00+19з45366 0.0 10061527
14:00+19зсз5540100 0.1 10061981
17:00+20зсз79333 0.3 10062430
20:00+16зсз510450 0.3 1007933
15 мая, сб
сб1523:00+11ссз3563100 0.0 1010183
02:00+10ссз1264100 0.0 101136
05:00+8сз2272100 0.0 101230
08:00+12з36588 0.0 1012272
11:00+17зсз71035100 0.0 10121026
14:00+15зсз5948100 0.0 10121029
17:00+15зсз41058100 0.0 1011749
20:00+13з4116997 0.1 1011617
16 мая, вс
вс1623:00+12з41377100 0.1 1011606
02:00+12зсз41074100 0.1 1010332
05:00+11з3580100 0.0 1008136
08:00+13з3771100 0.0 1009243
11:00+21з61146100 0.0 10091228
14:00+23зсз6103999 0.0 10091710
17:00+22зсз81439100 0.0 10081639
20:00+16з6126791 0.0 1009993
17 мая, пн
пн1723:00+16сз7164441 0.1 10101200
02:00+15з613456 0.1 1010758
05:00+13зсз61368100 0.0 1010671
08:00+14зсз51259100 0.0 1010553
11:00+19зсз815276 0.0 10101358
14:00+22зсз917202 0.0 10101851
17:00+21зсз9162820 0.0 10101907
20:00+18зсз814370 0.0 10111782
18 мая, вт
вт1823:00+15зсз7144411 0.0 10131173
02:00+13зсз714492 0.0 1013949
05:00+11зсз7145237 0.0 1014723
08:00+12зсз715520 0.0 1015770
11:00+18зсз8133267 0.0 10141198
14:00+21зсз1014240 0.0 10141756
17:00+21зсз1014280 0.0 10141533
20:00+17сз7133811 0.0 1016854